Find Starlink 32258

NORAD ID: 60939 Int'l Des: 2024-155 Owner: SPXS Country: US Constellation: starlink operational
LEOCIRCULAR

現在のビュー

3D地球を読み込み中...

About Starlink 32258

Starlink 32258 (NORAD 60939) is a starlink constellation satellite (v2 mini) launched Aug 31, 2024 by SPXS of US. It operates in LEO, CIRCULAR orbit with a mass of 730.00 kg.

Starlink 32258について

説明を読み込み中...

次回通過

Passes for default location (London). Set your location on the main map for personalized predictions.

高度履歴

Loading altitude history...

軌道要素

1 60939U 24155R 26193.53174420 .00003858 00000-0 12529-3 0 9997
2 60939 53.1578 268.4551 0001263 78.5944 281.5200 15.34392027105424
Epoch: Jul 12, 2026 • Age: 8 hours

現在のステータス

高度 468.4 km
遠地点 / 近地点 N/A
速度 7.64 km/s
衛星直下点 53.31°N, 111.05°E
打ち上げ日 Aug 31, 2024
運用期間 1.8 years
タイプ internet

技術仕様

分類 Payload
質量 730.00 kg
乾燥質量 700.00 kg
総質量 730.00 kg
長さ 0.30 m
直径 4.10 m
スパン 29.00 m
形状 Box + pan
製造者 SPXS
バスタイプ Starlink V2M
フェーズステータス In Orbit
所有者/国 SPXS/US

Most Searched